AAL1549 KBOS-KPHL

Flight info

Callsign AAL1549
Flight time N/A
Altitude 34000
Route SSOXS7 SSOXS Q167 RIFLE Q439 BRIGS JIIMS4
Aircraft A20N/M-SDE2E3FGHIRWXY/LB1

Departure

Time 2026-05-05 23:35
Airport Boston Logan International Airport (KBOS)

Arrival

Time N/A
Airport Philadelphia International Airport (KPHL)
Time Latitude Longitude Altitude Speed Heading
2026-05-05 23:13 42.36985 -71.01719 27 ft 0 kts 289°
2026-05-05 23:16 42.36978 -71.01690 27 ft 6 kts 293°
2026-05-05 23:16 42.36951 -71.01646 30 ft 6 kts 357°
2026-05-05 23:16 42.36941 -71.01648 30 ft 0 kts 36°
2026-05-05 23:26 42.36942 -71.01648 25 ft 0 kts 36°
2026-05-05 23:27 42.36947 -71.01642 29 ft 4 kts 39°
2026-05-05 23:27 42.37002 -71.01588 27 ft 14 kts 33°
2026-05-05 23:27 42.37097 -71.01572 28 ft 17 kts 320°
2026-05-05 23:28 42.37134 -71.01730 29 ft 20 kts 268°
2026-05-05 23:28 42.37202 -71.01908 29 ft 22 kts 321°
2026-05-05 23:28 42.37251 -71.01926 30 ft 3 kts
2026-05-05 23:28 42.37294 -71.01907 29 ft 11 kts 21°
2026-05-05 23:29 42.37382 -71.01937 27 ft 18 kts 312°
2026-05-05 23:29 42.37469 -71.02094 26 ft 11 kts 295°
2026-05-05 23:29 42.37471 -71.02099 26 ft 0 kts 295°
2026-05-05 23:30 42.37474 -71.02103 28 ft 1 kts 320°
2026-05-05 23:30 42.37481 -71.02093 28 ft 4 kts 53°
2026-05-05 23:31 42.37450 -71.02035 26 ft 13 kts 132°
2026-05-05 23:31 42.37357 -71.01911 28 ft 23 kts 138°
2026-05-05 23:31 42.37246 -71.01757 29 ft 24 kts 135°
2026-05-05 23:31 42.37108 -71.01570 28 ft 33 kts 135°
2026-05-05 23:32 42.36957 -71.01369 26 ft 12 kts 130°
2026-05-05 23:32 42.36920 -71.01234 24 ft 18 kts 77°
2026-05-05 23:32 42.37009 -71.01096 26 ft 23 kts 29°
2026-05-05 23:32 42.37164 -71.00994 21 ft 26 kts 25°
2026-05-05 23:33 42.37247 -71.00941 20 ft 1 kts 25°
2026-05-05 23:33 42.37278 -71.00921 20 ft 0 kts 25°
2026-05-05 23:33 42.37299 -71.00909 20 ft 10 kts 23°
2026-05-05 23:33 42.37414 -71.00850 20 ft 25 kts 21°
2026-05-05 23:34 42.37624 -71.00749 25 ft 38 kts 19°
2026-05-05 23:34 42.37795 -71.00667 28 ft 22 kts 21°
2026-05-05 23:34 42.37832 -71.00548 29 ft 13 kts 105°
2026-05-05 23:34 42.37756 -71.00490 24 ft 14 kts 196°
2026-05-05 23:35 42.37527 -71.00600 23 ft 72 kts 199°
2026-05-05 23:35 42.36827 -71.00938 43 ft 135 kts 200°
2026-05-05 23:35 42.35926 -71.01377 715 ft 139 kts 200°
2026-05-05 23:35 42.34984 -71.01778 1472 ft 146 kts 192°
2026-05-05 23:36 42.33911 -71.01502 2067 ft 177 kts 165°
2026-05-05 23:36 42.32892 -71.00262 2481 ft 220 kts 138°
2026-05-05 23:36 42.31973 -70.98496 3081 ft 234 kts 135°
2026-05-05 23:36 42.31256 -70.96481 4014 ft 249 kts 109°
2026-05-05 23:37 42.31257 -70.94087 4739 ft 268 kts 84°
2026-05-05 23:37 42.31622 -70.91526 5222 ft 289 kts 80°
2026-05-05 23:37 42.32070 -70.88784 5727 ft 308 kts 79°
2026-05-05 23:37 42.32527 -70.85915 6510 ft 314 kts 80°
2026-05-05 23:38 42.32965 -70.83012 7372 ft 317 kts 81°
2026-05-05 23:38 42.33074 -70.80058 8240 ft 314 kts 102°
2026-05-05 23:38 42.32428 -70.77285 9102 ft 309 kts 120°
2026-05-05 23:38 42.31506 -70.74634 9944 ft 313 kts 120°
2026-05-05 23:39 42.30565 -70.71932 10531 ft 326 kts 120°
2026-05-05 23:39 42.29292 -70.69325 10784 ft 340 kts 140°
2026-05-05 23:39 42.27348 -70.67487 11146 ft 343 kts 163°
2026-05-05 23:39 42.25112 -70.66429 11891 ft 343 kts 167°
2026-05-05 23:40 42.22827 -70.65390 12675 ft 347 kts 167°
2026-05-05 23:40 42.20521 -70.64339 13437 ft 351 kts 166°
2026-05-05 23:40 42.18196 -70.63276 14130 ft 355 kts 166°
2026-05-05 23:40 42.15834 -70.62290 14811 ft 354 kts 173°
2026-05-05 23:41 42.13395 -70.62013 15446 ft 351 kts 188°
2026-05-05 23:41 42.11043 -70.62569 16100 ft 347 kts 201°
2026-05-05 23:41 42.08737 -70.63599 16712 ft 351 kts 202°
2026-05-05 23:41 42.06403 -70.64644 17370 ft 355 kts 202°
2026-05-05 23:42 42.04044 -70.65692 17999 ft 359 kts 201°
2026-05-05 23:42 42.01662 -70.66743 18566 ft 362 kts 201°
2026-05-05 23:42 41.99243 -70.67807 19129 ft 366 kts 201°
2026-05-05 23:42 41.96809 -70.68876 19667 ft 370 kts 201°
2026-05-05 23:43 41.94348 -70.69956 20188 ft 373 kts 201°
2026-05-05 23:43 41.91864 -70.71046 20709 ft 377 kts 201°
2026-05-05 23:43 41.89358 -70.72145 21229 ft 381 kts 201°
2026-05-05 23:43 41.86852 -70.73242 21739 ft 385 kts 201°
2026-05-05 23:44 41.84308 -70.74415 22241 ft 387 kts 205°
2026-05-05 23:44 41.81866 -70.75959 22746 ft 388 kts 212°
2026-05-05 23:44 41.79505 -70.77752 23236 ft 392 kts 212°
2026-05-05 23:44 41.77119 -70.79559 23698 ft 395 kts 212°
2026-05-05 23:45 41.74716 -70.81369 24180 ft 397 kts 212°
2026-05-05 23:45 41.72289 -70.83191 24612 ft 400 kts 212°
2026-05-05 23:45 41.69850 -70.85018 25026 ft 403 kts 212°
2026-05-05 23:45 41.67398 -70.86854 25443 ft 405 kts 212°
2026-05-05 23:46 41.64927 -70.88702 25837 ft 408 kts 212°
2026-05-05 23:46 41.62438 -70.90562 26231 ft 411 kts 213°
2026-05-05 23:46 41.59935 -70.92432 26612 ft 414 kts 213°
2026-05-05 23:46 41.57435 -70.94358 26977 ft 415 kts 217°
2026-05-05 23:47 41.55173 -70.96657 27331 ft 414 kts 225°
2026-05-05 23:47 41.53183 -70.99420 27683 ft 413 kts 233°
2026-05-05 23:47 41.51516 -71.02535 28017 ft 413 kts 239°
2026-05-05 23:47 41.49927 -71.05751 28362 ft 416 kts 239°
2026-05-05 23:48 41.48321 -71.08975 28682 ft 418 kts 239°
2026-05-05 23:48 41.46698 -71.12216 28996 ft 421 kts 239°
2026-05-05 23:48 41.45066 -71.15470 29304 ft 423 kts 239°
2026-05-05 23:48 41.43419 -71.18746 29585 ft 426 kts 239°
2026-05-05 23:49 41.41767 -71.22030 29888 ft 428 kts 239°
2026-05-05 23:49 41.40105 -71.25329 30155 ft 430 kts 239°
2026-05-05 23:49 41.38434 -71.28643 30424 ft 432 kts 239°
2026-05-05 23:49 41.36749 -71.31981 30678 ft 435 kts 239°
2026-05-05 23:50 41.35057 -71.35331 30941 ft 436 kts 239°
2026-05-05 23:50 41.33361 -71.38688 31265 ft 437 kts 239°
2026-05-05 23:50 41.31661 -71.42050 31609 ft 437 kts 239°
2026-05-05 23:50 41.29988 -71.45354 31943 ft 436 kts 240°
2026-05-05 23:51 41.28291 -71.48703 32286 ft 436 kts 240°
2026-05-05 23:51 41.26597 -71.52043 32626 ft 435 kts 240°
2026-05-05 23:51 41.24904 -71.55376 32967 ft 435 kts 240°
2026-05-05 23:51 41.23212 -71.58704 33285 ft 434 kts 240°
2026-05-05 23:52 41.21518 -71.62035 33596 ft 434 kts 240°
2026-05-05 23:52 41.19828 -71.65352 33874 ft 433 kts 240°
2026-05-05 23:52 41.17291 -71.70325 33930 ft 431 kts 240°
2026-05-05 23:53 41.13928 -71.76910 33941 ft 431 kts 240°
2026-05-05 23:53 41.10573 -71.83508 33941 ft 431 kts 241°
2026-05-05 23:54 41.07222 -71.90096 33943 ft 431 kts 240°
2026-05-05 23:54 41.03894 -71.96706 33944 ft 429 kts 244°
2026-05-05 23:55 41.01243 -72.03721 33944 ft 425 kts 250°
2026-05-05 23:55 40.98756 -72.10812 33951 ft 425 kts 249°
2026-05-05 23:56 40.96253 -72.17900 33953 ft 425 kts 249°
2026-05-05 23:56 40.93761 -72.24936 33950 ft 425 kts 249°
2026-05-05 23:57 40.90700 -72.31677 33948 ft 431 kts 238°
2026-05-05 23:57 40.86654 -72.37612 33944 ft 437 kts 230°
2026-05-05 23:58 40.82314 -72.43252 33948 ft 437 kts 230°
2026-05-05 23:58 40.77791 -72.48674 33957 ft 443 kts 225°
2026-05-05 23:59 40.73028 -72.53824 33885 ft 441 kts 225°
2026-05-05 23:59 40.70662 -72.56383 33496 ft 439 kts 225°
2026-05-05 23:59 40.68358 -72.59001 32856 ft 436 kts 229°
2026-05-06 00:00 40.66236 -72.61782 32110 ft 436 kts 230°
2026-05-06 00:00 40.64090 -72.64610 31333 ft 437 kts 229°
2026-05-06 00:00 40.61910 -72.67476 30565 ft 438 kts 229°
2026-05-06 00:00 40.59782 -72.70264 29944 ft 436 kts 229°
2026-05-06 00:01 40.57645 -72.73054 29329 ft 430 kts 229°
2026-05-06 00:01 40.55503 -72.75847 28746 ft 425 kts 229°
2026-05-06 00:01 40.53437 -72.78539 28171 ft 420 kts 229°
2026-05-06 00:01 40.51362 -72.81224 27586 ft 417 kts 227°
2026-05-06 00:02 40.49252 -72.83807 27030 ft 413 kts 226°
2026-05-06 00:02 40.47135 -72.86330 26467 ft 409 kts 226°
2026-05-06 00:02 40.45032 -72.88830 25934 ft 404 kts 226°
2026-05-06 00:02 40.42964 -72.91299 25395 ft 401 kts 226°
2026-05-06 00:03 40.40916 -72.93756 24864 ft 397 kts 226°
2026-05-06 00:03 40.39575 -72.95367 24524 ft 395 kts 226°
2026-05-06 00:03 40.36880 -72.98607 23830 ft 390 kts 226°
2026-05-06 00:03 40.34891 -73.00999 23301 ft 386 kts 226°
2026-05-06 00:04 40.32964 -73.03312 22735 ft 383 kts 226°
2026-05-06 00:04 40.31009 -73.05659 22172 ft 379 kts 226°
2026-05-06 00:04 40.29721 -73.07204 21807 ft 376 kts 225°
2026-05-06 00:04 40.27800 -73.09506 21248 ft 373 kts 225°
2026-05-06 00:05 40.24012 -73.14041 20222 ft 365 kts 225°
2026-05-06 00:05 40.22160 -73.16256 20013 ft 358 kts 225°
2026-05-06 00:05 40.20303 -73.18478 19967 ft 365 kts 225°
2026-05-06 00:06 40.18427 -73.20721 19940 ft 365 kts 225°
2026-05-06 00:06 40.16562 -73.22947 19787 ft 362 kts 225°
2026-05-06 00:06 40.14708 -73.25158 19405 ft 360 kts 225°
2026-05-06 00:06 40.12865 -73.27354 18919 ft 357 kts 225°
2026-05-06 00:07 40.11035 -73.29533 18424 ft 354 kts 225°
2026-05-06 00:07 40.09218 -73.31693 17884 ft 351 kts 225°
2026-05-06 00:07 40.07422 -73.33825 17346 ft 348 kts 225°
2026-05-06 00:07 40.05633 -73.35948 16794 ft 345 kts 225°
2026-05-06 00:08 40.03863 -73.38048 16277 ft 342 kts 225°
2026-05-06 00:08 40.02109 -73.40128 15753 ft 340 kts 225°
2026-05-06 00:08 40.00364 -73.42195 15241 ft 337 kts 225°
2026-05-06 00:08 39.98637 -73.44239 14746 ft 334 kts 225°
2026-05-06 00:09 39.96920 -73.46271 14281 ft 332 kts 225°
2026-05-06 00:09 39.95233 -73.48262 14068 ft 324 kts 225°
2026-05-06 00:09 39.93552 -73.50251 13986 ft 331 kts 225°
2026-05-06 00:09 39.91837 -73.52279 13985 ft 333 kts 225°
2026-05-06 00:10 39.90160 -73.54336 13993 ft 330 kts 229°
2026-05-06 00:10 39.88677 -73.56606 13992 ft 329 kts 233°
2026-05-06 00:10 39.87231 -73.58924 13989 ft 329 kts 233°
2026-05-06 00:10 39.85781 -73.61236 13993 ft 330 kts 233°
2026-05-06 00:11 39.84329 -73.63543 13992 ft 330 kts 233°
2026-05-06 00:11 39.82899 -73.65811 13988 ft 330 kts 233°
2026-05-06 00:11 39.81427 -73.68144 13988 ft 329 kts 232°
2026-05-06 00:11 39.79991 -73.70416 13990 ft 329 kts 232°
2026-05-06 00:12 39.78517 -73.72749 13987 ft 329 kts 232°
2026-05-06 00:12 39.77058 -73.75057 13996 ft 329 kts 232°
2026-05-06 00:12 39.75624 -73.77324 13988 ft 329 kts 232°
2026-05-06 00:12 39.74172 -73.79617 13989 ft 329 kts 232°
2026-05-06 00:13 39.72717 -73.81914 13992 ft 329 kts 232°
2026-05-06 00:13 39.71262 -73.84209 13993 ft 329 kts 232°
2026-05-06 00:13 39.69808 -73.86501 13990 ft 329 kts 232°
2026-05-06 00:13 39.68352 -73.88793 13990 ft 328 kts 232°
2026-05-06 00:14 39.66897 -73.91083 13986 ft 328 kts 232°
2026-05-06 00:14 39.65440 -73.93374 13989 ft 329 kts 232°
2026-05-06 00:14 39.63980 -73.95670 13992 ft 329 kts 232°
2026-05-06 00:14 39.62522 -73.97959 13990 ft 329 kts 232°
2026-05-06 00:15 39.61065 -74.00245 13984 ft 329 kts 232°
2026-05-06 00:15 39.59605 -74.02535 13986 ft 329 kts 232°
2026-05-06 00:15 39.58145 -74.04822 13993 ft 329 kts 232°
2026-05-06 00:15 39.56683 -74.07110 13989 ft 329 kts 232°
2026-05-06 00:16 39.55223 -74.09394 13983 ft 329 kts 232°
2026-05-06 00:16 39.53794 -74.11711 13982 ft 329 kts 238°
2026-05-06 00:16 39.52799 -74.14361 13978 ft 328 kts 252°
2026-05-06 00:16 39.52414 -74.17270 13979 ft 330 kts 267°
2026-05-06 00:17 39.52468 -74.20207 13977 ft 330 kts 270°
2026-05-06 00:17 39.52537 -74.23188 13978 ft 330 kts 270°
2026-05-06 00:17 39.52599 -74.26165 13973 ft 331 kts 269°
2026-05-06 00:17 39.52658 -74.29150 13973 ft 331 kts 269°
2026-05-06 00:18 39.52714 -74.32138 13971 ft 331 kts 269°
2026-05-06 00:18 39.52770 -74.35116 13970 ft 332 kts 269°
2026-05-06 00:18 39.52824 -74.38108 13925 ft 331 kts 269°
2026-05-06 00:18 39.52878 -74.41079 13639 ft 330 kts 269°
2026-05-06 00:19 39.52931 -74.44045 13173 ft 328 kts 269°
2026-05-06 00:19 39.52984 -74.46992 12652 ft 326 kts 269°
2026-05-06 00:19 39.53034 -74.49912 12153 ft 323 kts 269°
2026-05-06 00:19 39.53084 -74.52817 11662 ft 321 kts 269°
2026-05-06 00:20 39.53132 -74.55684 11176 ft 318 kts 269°
2026-05-06 00:20 39.53179 -74.58539 10700 ft 316 kts 269°
2026-05-06 00:20 39.53226 -74.61366 10342 ft 310 kts 269°
2026-05-06 00:20 39.53271 -74.64096 10219 ft 296 kts 269°
2026-05-06 00:21 39.53313 -74.66703 10111 ft 283 kts 269°
2026-05-06 00:21 39.53353 -74.69187 10002 ft 270 kts 269°
2026-05-06 00:21 39.53390 -74.71584 9704 ft 264 kts 269°
2026-05-06 00:21 39.53425 -74.73948 9336 ft 261 kts 269°
2026-05-06 00:22 39.53623 -74.76271 8945 ft 262 kts 285°
2026-05-06 00:22 39.54594 -74.78291 8533 ft 271 kts 311°
2026-05-06 00:22 39.56194 -74.79595 8135 ft 280 kts 329°
2026-05-06 00:22 39.58014 -74.80538 7753 ft 282 kts 333°
2026-05-06 00:23 39.59855 -74.81403 7364 ft 281 kts 333°
2026-05-06 00:23 39.61684 -74.82278 6982 ft 280 kts 332°
2026-05-06 00:23 39.63501 -74.83181 6612 ft 278 kts 331°
2026-05-06 00:23 39.65287 -74.84096 6263 ft 276 kts 330°
2026-05-06 00:24 39.67077 -74.85029 5823 ft 277 kts 330°
2026-05-06 00:24 39.68841 -74.85959 5443 ft 276 kts 330°
2026-05-06 00:24 39.70616 -74.86894 5069 ft 275 kts 330°
2026-05-06 00:24 39.72394 -74.87830 4705 ft 275 kts 329°
2026-05-06 00:25 39.74172 -74.88767 4280 ft 277 kts 329°
2026-05-06 00:25 39.75963 -74.89713 3894 ft 276 kts 329°
2026-05-06 00:25 39.77711 -74.90628 3773 ft 265 kts 329°
2026-05-06 00:25 39.79387 -74.91503 3682 ft 254 kts 329°
2026-05-06 00:26 39.80998 -74.92347 3582 ft 244 kts 328°
2026-05-06 00:26 39.82538 -74.93157 3488 ft 233 kts 328°
2026-05-06 00:26 39.84008 -74.93932 3368 ft 224 kts 327°
2026-05-06 00:26 39.85429 -74.94685 3212 ft 212 kts 327°
2026-05-06 00:27 39.86731 -74.95361 3105 ft 190 kts 326°